Location: Saint Louis
(38.6270°N, 90.1980°W)
Time: 22:33:29
(UTC-05:00)

ISS - Pass Details

Date: 02 April 2013
Orbit: 402 x 404 km, 51.6° (Epoch: 31 May)

Event Time Altitude Azimuth Distance (km) Brightness Sun altitude
Exits shadow 05:38:53 16° 295° (WNW) 1,163 -1.4 -13.2°
Maximum altitude 05:41:18 50° 223° (SW) 530 -3.1 -12.7°
Drops below altitude 10° 05:44:30 10° 147° (SSE) 1,466 -0.3 -12.1°
Sets 05:46:35 0° 142° (SE) 2,316 0.8 -11.8°
